Stations météo

Publicité
Nice, France (7690): Température de l'air & dewpoint: 12.09.2018 17:00:00 - 18.09.2018 17:00:00 (CEST)Nice, France (7690): Température de l'air 5cm: 12.09.2018 17:00:00 - 18.09.2018 17:00:00 (CEST)Nice, France (7690): Température de l'air -20cm & Température de l'air -100cm: 12.09.2018 17:00:00 - 18.09.2018 17:00:00 (CEST)Nice, France (7690): Vitesse du vent & gusts: 12.09.2018 17:00:00 - 18.09.2018 17:00:00 (CEST)Nice, France (7690): Direction du vent: 12.09.2018 17:00:00 - 18.09.2018 17:00:00 (CEST)Nice, France (7690): reduced air pressure: 12.09.2018 17:00:00 - 18.09.2018 17:00:00 (CEST)Nice, France (7690): visibility: 12.09.2018 17:00:00 - 18.09.2018 17:00:00 (CEST)Nice, France (7690): Ensoleillement: 12.09.2018 17:00:00 - 18.09.2018 17:00:00 (CEST)Nice, France (7690): Quantités de précipitations: 12.09.2018 17:00:00 - 18.09.2018 17:00:00 (CEST)
Date & Time tt [°C] td [°C] tt 5cm [°C] tt -20cm [°C] tt -100cm [°C] ff [km/h] ff [knt] fx [km/h] fx [knt] dd ppp [hPa] vv [km] sd [min] rr [mm]
18.09.2018 17:00:00 26,1 20,4 29,4 26,5 26,3 5 3 11 6 E 1018,1 20 54 0,0
18.09.2018 16:00:00 26,0 19,6 29,9 26,5 26,3 9 5 15 8 E 1018,8 20 42 0,0
18.09.2018 15:00:00 26,3 19,2 28,2 26,5 26,3 10 5 16 9 E 1019,0 20 26 0,0
18.09.2018 14:00:00 26,4 19,3 31,9 26,5 26,4 12 6 18 10 E 1019,3 20 60 0,0
18.09.2018 13:00:00 26,4 19,8 31,7 26,5 26,2 12 6 16 9 ESE 1019,7 20 60 0,0
18.09.2018 12:00:00 26,0 18,9 31,2 26,5 26,2 13 7 18 10 E 1019,5 30 60 0,0
18.09.2018 11:00:00 25,8 18,2 30,7 26,6 26,3 8 4 18 10 ENE 1019,4 30 60 0,0
18.09.2018 10:00:00 24,8 15,1 25,0 26,5 26,2 14 7 21 12 NNW 1019,6 30 53 0,0
18.09.2018 09:00:00 22,2 14,8 22,1 26,5 26,3 14 7 22 12 NNW 1019,5 30 60 0,0
18.09.2018 08:00:00 20,7 14,6 19,9 26,6 26,3 13 7 23 13 NNW 1019,6 30 26 0,0
18.09.2018 07:00:00 20,5 14,8 19,9 26,6 26,2 14 8 21 11 NNW 1019,2 36 0 0,0
18.09.2018 06:00:00 20,4 15,0 20,0 26,6 26,1 12 6 18 10 NNW 1019,1 30 0 0,0
18.09.2018 05:00:00 20,5 15,1 20,1 26,5 26,3 12 7 16 9 NNW 1019,1 30 0 0,0
18.09.2018 04:00:00 20,9 15,4 20,4 26,5 26,1 12 6 18 10 NNW 1019,0 30 0 0,0
18.09.2018 03:00:00 21,2 15,7 20,7 26,5 26,3 13 7 16 8 NNW 1019,1 30 0 0,0
18.09.2018 02:00:00 21,4 16,1 20,9 26,5 26,3 10 6 16 8 NNW 1019,1 30 0 0,0
18.09.2018 01:00:00 21,8 17,0 21,1 26,5 26,3 13 7 16 9 NNW 1019,1 30 0 0,0
18.09.2018 00:00:00 21,6 17,6 21,1 26,5 26,3 10 5 14 7 NW 1019,3 30 0 0,0
17.09.2018 23:00:00 22,1 18,5 21,6 26,4 26,3 9 5 15 8 NNW 1019,8 30 0 0,0
17.09.2018 22:00:00 23,0 19,0 22,4 26,5 26,2 9 5 13 7 NNE 1019,7 30 0 0,0
17.09.2018 21:00:00 23,8 19,1 23,2 26,4 26,2 4 2 8 5 SSE 1019,6 30 0 0,0
17.09.2018 20:00:00 23,8 19,3 23,3 26,5 26,5 4 2 16 9 ESE 1019,0 30 16 0,0
17.09.2018 19:00:00 24,6 19,9 26,0 26,5 26,1 9 5 17 9 E 1018,9 30 60 0,0
17.09.2018 18:00:00 25,2 19,6 28,5 26,5 26,3 12 7 15 8 E 1019,1 30 60 0,0
17.09.2018 17:00:00 25,5 19,4 29,5 26,5 26,3 9 5 12 6 E 1019,6 30 58 0,0
17.09.2018 16:00:00 26,1 19,2 30,7 26,5 26,3 8 5 12 6 E 1020,1 30 52 0,0
17.09.2018 15:00:00 25,6 19,5 29,1 26,5 26,4 9 5 16 8 SE 1020,5 30 24 0,0
17.09.2018 14:00:00 25,8 19,4 29,8 26,5 26,3 12 7 18 10 ESE 1021,0 30 57 0,0
17.09.2018 13:00:00 26,2 18,8 30,5 26,5 26,3 13 7 20 11 E 1021,4 30 60 0,0
17.09.2018 12:00:00 25,9 18,8 29,3 26,5 26,2 16 9 21 11 ESE 1021,7 30 52 0,0
17.09.2018 11:00:00 25,4 18,3 27,2 26,5 26,4 12 7 17 9 E 1021,7 30 48 0,0
17.09.2018 10:00:00 24,6 17,8 26,7 26,6 26,2 9 5 13 7 NE 1021,5 30 32 0,0
17.09.2018 09:00:00 23,0 16,8 21,8 26,5 26,4 10 5 16 9 NNW 1021,1 30 24 0,0
17.09.2018 08:00:00 21,6 16,3 21,4 26,5 26,2 13 7 16 9 NNW 1020,9 30 0 0,0
17.09.2018 07:00:00 21,6 16,3 21,2 26,5 26,3 9 5 14 8 NNW 1020,5 30 0 0,0
17.09.2018 06:00:00 21,6 16,8 21,2 26,5 26,3 8 5 14 8 NNW 1020,4 30 0 0,0
17.09.2018 05:00:00 21,6 16,8 21,3 26,5 26,5 10 5 14 8 NNW 1020,5 30 0 0,0
17.09.2018 04:00:00 21,7 16,9 21,5 26,5 26,2 9 5 12 7 NNW 1020,6 30 0 0,0
17.09.2018 03:00:00 21,8 17,0 21,7 26,5 26,5 9 5 13 7 NNW 1020,9 30 0 0,0
17.09.2018 02:00:00 21,7 17,1 21,3 26,5 26,4 9 5 12 7 NNW 1021,3 30 0 0,0
17.09.2018 01:00:00 21,5 17,1 21,3 26,5 26,4 9 5 14 8 NW 1021,5 30 0 0,0
17.09.2018 00:00:00 22,1 17,2 21,5 26,5 26,3 7 4 13 7 NNW 1021,5 30 0 0,0
16.09.2018 23:00:00 22,7 17,8 21,4 26,5 26,3 8 5 12 6 NNW 1021,6 30 0 0,0
16.09.2018 22:00:00 23,2 18,1 22,2 26,4 26,3 6 3 8 4 W 1021,5 40 0 0,0
16.09.2018 21:00:00 23,9 18,5 23,3 26,5 26,3 3 2 5 3 WSW 1021,4 40 0 0,0
16.09.2018 20:00:00 24,2 18,4 24,0 26,5 26,2 3 2 6 3 ENE 1021,0 40 0 0,0
16.09.2018 19:00:00 24,3 17,8 25,1 26,5 26,3 2 1 7 4 ESE 1021,2 40 13 0,0
16.09.2018 18:00:00 24,7 17,4 26,7 26,5 26,3 3 2 8 4 S 1021,2 40 20 0,0
16.09.2018 17:00:00 24,8 18,3 28,0 26,5 26,5 4 2 13 7 SSE 1021,2 40 41 0,0
16.09.2018 16:00:00 25,5 18,9 30,6 26,5 26,3 6 4 15 8 SSE 1021,2 40 52 0,0
16.09.2018 15:00:00 25,8 19,7 30,0 26,5 26,3 10 5 14 8 SSE 1021,6 40 38 0,0
16.09.2018 14:00:00 25,3 19,7 30,6 26,5 26,3 10 6 18 10 SSE 1021,8 30 42 0,0
16.09.2018 13:00:00 25,7 19,3 29,1 26,5 26,3 11 6 17 9 SE 1021,9 30 38 0,0
16.09.2018 12:00:00 25,4 19,5 28,8 26,5 26,3 9 5 15 8 E 1022,2 30 51 0,0
16.09.2018 11:00:00 25,8 19,2 26,5 26,6 26,3 9 5 14 8 E 1022,4 30 29 0,0
16.09.2018 10:00:00 23,7 15,5 23,5 26,6 26,3 9 5 17 9 NNW 1021,9 30 1 0,0
16.09.2018 09:00:00 21,8 14,7 21,4 26,6 26,3 11 6 21 11 NNW 1021,8 30 8 0,0
16.09.2018 08:00:00 20,4 14,5 19,4 26,6 26,3 16 8 26 14 NNW 1021,6 20 18 0,0
16.09.2018 07:00:00 19,8 14,6 19,2 26,5 26,2 15 8 19 11 NNW 1021,2 20 0 0,0
16.09.2018 06:00:00 20,0 15,0 19,4 26,6 26,3 14 7 18 10 NNW 1020,8 30 0 0,0
16.09.2018 05:00:00 20,2 15,2 19,6 26,5 26,2 14 8 18 10 NNW 1020,3 39 0 0,0
16.09.2018 04:00:00 20,7 15,3 20,4 26,5 26,4 14 8 17 9 NNW 1020,7 30 0 0,0
16.09.2018 03:00:00 21,0 15,8 20,4 26,5 26,4 13 7 16 9 NNW 1021,2 30 0 0,0
16.09.2018 02:00:00 21,4 16,8 20,9 26,5 26,3 11 6 14 8 NNW 1021,4 30 0 0,0
16.09.2018 01:00:00 21,8 17,8 21,2 26,5 26,3 8 5 16 8 NNE 1021,1 30 0 0,0
16.09.2018 00:00:00 24,2 20,1 23,9 26,5 26,3 16 8 25 14 ENE 1021,0 30 0 0,0
15.09.2018 23:00:00 24,3 20,8 23,8 26,5 26,3 18 10 27 15 E 1020,6 30 0 0,0
15.09.2018 22:00:00 24,2 20,7 23,8 26,5 26,4 20 11 24 13 E 1020,2 30 0 0,0
15.09.2018 21:00:00 24,3 21,0 24,0 26,5 26,3 18 10 22 12 E 1020,0 30 0 0,0
15.09.2018 20:00:00 24,3 20,6 24,0 26,5 26,3 16 9 22 12 E 1019,9 20 9 0,0
15.09.2018 19:00:00 24,8 20,7 25,3 26,5 26,5 16 9 20 11 ESE 1019,5 20 27 0,0
15.09.2018 18:00:00 25,6 20,4 27,7 26,5 26,4 15 8 24 13 E 1019,2 20 48 0,0
15.09.2018 17:00:00 26,1 20,7 30,3 26,5 26,2 18 10 24 13 E 1019,2 20 60 0,0
15.09.2018 16:00:00 26,5 21,3 28,3 26,5 26,4 19 10 26 14 E 1019,2 20 38 0,0
15.09.2018 15:00:00 26,9 21,9 29,7 26,5 26,5 21 11 28 15 E 1019,0 20 36 0,0
15.09.2018 14:00:00 26,9 21,6 31,0 26,5 26,3 19 11 24 13 E 1019,0 20 56 0,0
15.09.2018 13:00:00 27,0 20,8 28,5 26,5 26,3 16 9 22 12 E 1018,9 20 48 0,0
15.09.2018 12:00:00 25,9 20,9 28,4 26,5 26,4 17 9 21 11 E 1019,2 14 34 0,0
15.09.2018 11:00:00 26,5 20,1 30,7 26,5 26,3 13 7 16 9 ESE 1018,8 20 60 0,0
15.09.2018 10:00:00 26,2 19,3 28,2 26,5 26,3 4 2 10 5 E 1018,3 20 53 0,0
15.09.2018 09:00:00 24,0 18,0 23,6 26,5 26,5 9 5 14 8 NNW 1017,9 20 60 0,0
15.09.2018 08:00:00 22,2 17,6 21,3 26,5 26,2 12 7 17 9 N 1017,6 20 11 0,0
15.09.2018 07:00:00 21,7 17,9 21,1 26,5 26,3 10 5 15 8 NNW 1017,3 18 0 0,0
15.09.2018 06:00:00 21,8 18,0 21,3 26,5 26,3 11 6 15 8 NNW 1016,8 15 0 0,0
15.09.2018 05:00:00 21,7 18,1 21,4 26,5 26,3 10 5 15 8 NNW 1016,7 15 0 0,0
15.09.2018 04:00:00 22,1 18,7 21,7 26,5 26,5 11 6 14 8 NNW 1016,5 15 0 0,0
15.09.2018 03:00:00 22,7 18,9 22,4 26,5 26,3 9 5 14 7 NNW 1016,6 15 0 0,0
15.09.2018 02:00:00 23,4 19,3 23,0 26,5 26,4 8 4 11 6 NW 1016,9 13 0 0,0
15.09.2018 01:00:00 23,3 19,7 22,7 26,5 26,4 7 4 10 5 NW 1016,6 13 0 0,0
15.09.2018 00:00:00 23,1 19,5 22,6 26,5 26,4 8 5 11 6 NNW 1016,5 13 0 0,0
14.09.2018 23:00:00 23,6 19,5 22,9 26,5 26,4 5 3 8 4 NE 1016,2 13 0 0,0
14.09.2018 22:00:00 24,2 20,5 23,5 26,5 26,4 5 3 8 4 E 1016,2 20 0 0,0
14.09.2018 21:00:00 24,3 20,2 23,7 26,5 26,3 4 2 6 3 E 1015,8 20 0 0,0
14.09.2018 20:00:00 24,5 20,2 24,0 26,5 26,5 4 2 6 4 ENE 1015,5 20 11 0,0
14.09.2018 19:00:00 25,2 20,2 26,9 26,5 26,4 4 2 13 7 SSW 1015,5 20 37 0,0
14.09.2018 18:00:00 25,5 20,5 28,5 26,5 26,5 9 5 13 7 S 1015,4 30 45 0,0
14.09.2018 17:00:00 25,8 20,6 28,5 26,5 26,4 9 5 16 9 SSE 1015,2 30 47 0,0
14.09.2018 16:00:00 25,8 20,4 28,3 26,6 26,4 10 6 17 9 ESE 1015,2 30 40 0,0
14.09.2018 15:00:00 26,6 20,9 31,9 26,6 26,4 11 6 18 10 ESE 1015,3 30 60 0,0
14.09.2018 14:00:00 26,6 20,4 31,7 26,6 26,3 15 8 19 10 ESE 1015,7 30 60 0,0
14.09.2018 13:00:00 26,4 20,7 31,6 26,6 26,4 14 7 18 10 E 1016,0 30 60 0,0
14.09.2018 12:00:00 26,0 20,3 31,1 26,6 26,5 14 8 18 10 ESE 1016,1 30 60 0,0
14.09.2018 11:00:00 25,8 19,4 31,1 26,7 26,3 10 5 18 10 E 1015,9 30 60 0,0
14.09.2018 10:00:00 24,8 15,7 26,7 26,7 26,3 11 6 18 10 NNW 1015,6 40 60 0,0
14.09.2018 09:00:00 22,4 15,3 22,5 26,7 26,4 13 7 20 11 NNW 1015,4 40 60 0,0
14.09.2018 08:00:00 20,8 15,1 20,2 26,7 26,4 16 8 25 14 NNW 1015,1 40 29 0,0
14.09.2018 07:00:00 20,6 15,2 20,1 26,7 26,4 14 8 18 10 NNW 1014,8 40 0 0,0
14.09.2018 06:00:00 20,9 15,2 20,4 26,7 26,5 13 7 20 11 NNW 1014,6 40 0 0,0
14.09.2018 05:00:00 21,0 15,5 20,6 26,7 26,5 17 9 22 12 NNW 1014,6 40 0 0,0
14.09.2018 04:00:00 21,4 15,9 20,9 26,7 26,3 11 6 17 9 NNW 1014,8 40 0 0,0
14.09.2018 03:00:00 22,0 16,3 21,1 26,7 26,4 11 6 15 8 NNW 1015,1 40 0 0,0
14.09.2018 02:00:00 21,8 16,5 21,0 26,7 26,4 8 4 15 8 NNW 1015,1 58 0 0,0
14.09.2018 01:00:00 22,5 16,5 21,6 26,7 26,4 7 4 15 8 N 1014,9 40 0 0,0
14.09.2018 00:00:00 22,5 16,8 21,6 26,7 26,5 10 6 13 7 NW 1014,9 30 0 0,0
13.09.2018 23:00:00 23,2 17,6 22,1 26,7 26,4 7 4 12 7 N 1014,8 30 0 0,0
13.09.2018 22:00:00 23,5 19,4 22,3 26,7 26,5 5 3 9 5 NNE 1014,8 30 0 0,0
13.09.2018 21:00:00 23,9 19,4 23,1 26,7 26,4 6 3 10 5 NNE 1014,5 25 0 0,0
13.09.2018 20:00:00 24,2 19,7 21,6 26,7 26,3 4 2 7 4 NNW 1014,2 30 0 0,4
13.09.2018 19:00:00 24,8 19,2 25,3 26,7 26,5 4 2 9 5 SSE 1014,3 30 36 0,0
13.09.2018 18:00:00 25,3 19,7 26,6 26,8 26,4 6 4 17 9 SE 1014,2 30 49 0,0
13.09.2018 17:00:00 25,6 20,4 29,9 26,8 26,4 12 7 15 8 E 1014,4 30 60 0,0
13.09.2018 16:00:00 25,5 20,5 28,7 26,8 26,5 11 6 16 9 E 1015,0 30 54 0,0
13.09.2018 15:00:00 25,8 20,4 27,7 26,8 26,4 12 7 16 9 ESE 1015,3 30 45 0,0
13.09.2018 14:00:00 25,4 20,2 26,9 26,8 26,4 10 5 19 11 E 1015,7 30 12 0,0
13.09.2018 13:00:00 24,9 19,9 26,7 26,8 26,3 17 9 22 12 E 1016,3 30 12 0,0
13.09.2018 12:00:00 25,7 20,0 26,7 26,8 26,4 14 7 23 13 ESE 1016,5 30 2 0,0
13.09.2018 11:00:00 25,1 20,6 25,6 26,8 26,4 21 12 36 19 E 1016,4 30 11 0,0
13.09.2018 10:00:00 24,7 20,6 24,5 26,8 26,4 25 13 29 16 ENE 1015,9 40 17 0,0
13.09.2018 09:00:00 23,8 17,3 22,3 26,8 26,4 11 6 24 13 NNW 1015,4 30 6 0,0
13.09.2018 08:00:00 22,6 17,5 19,6 26,8 26,4 16 9 24 13 NNW 1015,0 30 0 0,0
13.09.2018 07:00:00 21,5 17,9 19,6 26,8 26,5 6 3 36 20 WNW 1015,4 15 0 0,8
13.09.2018 06:00:00 22,0 19,2 20,7 26,8 26,4 11 6 21 12 NW 1016,1 20 0 0,2
13.09.2018 05:00:00 22,6 19,8 21,5 26,7 26,2 7 4 15 8 NW 1016,6 15 0 0,2
13.09.2018 04:00:00 23,1 19,7 21,2 26,8 26,4 4 2 8 4 NW 1017,0 15 0 0,2
13.09.2018 03:00:00 23,9 18,8 22,8 26,7 26,4 6 4 17 9 WNW 1017,1 30 0 0,0
13.09.2018 02:00:00 25,0 17,5 24,1 26,7 26,4 14 8 19 10 ESE 1017,5 30 0 0,0
13.09.2018 01:00:00 24,7 16,9 24,1 26,7 26,4 5 3 16 9 E 1017,8 30 0 0,0
13.09.2018 00:00:00 24,5 17,7 23,8 26,7 26,5 7 4 10 6 NW 1018,8 30 0 0,0
12.09.2018 23:00:00 24,0 18,0 23,8 26,7 26,4 7 4 17 9 W 1018,9 30 0 0,0
12.09.2018 22:00:00 24,6 17,1 24,3 26,7 26,2 8 4 11 6 NW 1018,6 30 0 0,0
12.09.2018 21:00:00 25,2 18,9 24,7 26,7 26,4 3 1 10 5 ENE 1018,8 30 0 0,0
12.09.2018 20:00:00 25,3 18,5 24,9 26,7 26,4 8 4 15 8 NE 1019,2 30 0 0,0
12.09.2018 19:00:00 25,5 19,4 26,1 26,7 26,4 11 6 17 9 SSW 1019,8 40 0 0,0
12.09.2018 18:00:00 25,9 19,5 27,5 26,7 26,4 16 8 26 14 SW 1020,7 40 0 0,0
12.09.2018 17:00:00 26,1 20,0 29,2 26,7 26,3 16 9 21 11 SSW 1021,1 40 19 0,0

tt = Température de l'air
td = dewpoint
tt 5cm = Température de l'air 5cm
tt -20cm = Température de l'air -20cm
tt -100cm = Température de l'air -100cm
ff = Vitesse du vent
fx = gusts
dd = Direction du vent
ppp = reduced air pressure
vv = visibility
sd = Ensoleillement
rr = Quantités de précipitations

stations d'obs. à proximité